Simultaneous Nadir Overpasses (SNOs) Predictions

Prediction of SNOs between NOAA-20 and METOP-C Satellite Orbit:

Table of predicted SNOs for the next 14.0 days since TLE Epoch: 12/13/2019
Index Date (NOAA-20) Time (NOAA-20) Lat,Lon (NOAA-20) SZA (NOAA-20 ) Date (METOP-C) Time (METOP-C) Lat,Lon (METOP-C) SZA (METOP-C ) Distance(km) Time Diff (sec)
1 12/16/2019 02:57:24 73.46, 125.85 96.83 12/16/2019 02:58:30 73.36, 128.75 96.63 92.57 66
2 12/16/2019 03:48:05 -73.32, -66.51 83.32 12/16/2019 03:49:13 -73.23, -64.20 83.49 74.61 68
3 12/16/2019 04:38:47 73.11, 101.25 96.46 12/16/2019 04:39:57 73.04, 102.72 96.34 48.15 70
4 12/16/2019 05:29:28 -72.97, -91.13 83.69 12/16/2019 05:30:40 -72.92, -90.21 83.78 30.42 72
5 12/16/2019 06:20:10 72.77, 76.62 96.09 12/16/2019 06:21:24 72.73, 76.71 96.04 5.34 74
6 12/16/2019 07:10:53 -72.73,-115.98 83.95 12/16/2019 07:12:05 -72.71,-116.00 83.98 2.27 72
7 12/16/2019 08:01:39 72.72, 51.34 96.05 12/16/2019 08:02:45 72.71, 51.35 96.03 0.83 66
8 12/16/2019 08:52:22 -72.68,-141.26 84.00 12/16/2019 08:53:26 -72.69,-141.36 83.99 3.46 64
9 12/16/2019 09:43:09 72.73, 25.95 96.06 12/16/2019 09:44:06 72.70, 25.99 96.03 3.00 57
10 12/16/2019 10:33:52 -72.69,-166.65 83.99 12/16/2019 10:34:47 -72.68,-166.72 84.00 2.46 55
11 12/16/2019 11:24:38 72.68, 0.67 96.01 12/16/2019 11:25:27 72.69, 0.63 96.02 1.74 49
12 12/16/2019 12:15:22 -72.69, 167.97 83.98 12/16/2019 12:16:08 -72.67, 167.92 84.00 3.05 46
13 12/16/2019 13:06:08 72.69, -24.71 96.02 12/16/2019 13:06:48 72.67, -24.74 96.01 1.41 40
14 12/16/2019 13:56:52 -72.70, 142.58 83.97 12/16/2019 13:57:28 -72.71, 142.66 83.97 2.83 36
15 12/16/2019 14:47:38 72.69, -50.10 96.03 12/16/2019 14:48:09 72.66, -50.10 96.00 3.23 31
16 12/16/2019 15:38:22 -72.70, 117.19 83.96 12/16/2019 15:38:49 -72.69, 117.30 83.97 3.54 27
17 12/16/2019 16:29:07 72.65, -75.38 95.99 12/16/2019 16:29:30 72.65, -75.46 95.99 2.70 23
18 12/16/2019 17:19:51 -72.66, 91.91 84.00 12/16/2019 17:20:10 -72.68, 91.94 83.98 2.77 19
19 12/16/2019 18:10:37 72.65,-100.77 96.00 12/16/2019 18:10:51 72.64,-100.82 95.98 2.53 14
20 12/16/2019 19:01:21 -72.66, 66.53 83.99 12/16/2019 19:01:31 -72.67, 66.57 83.99 1.66 10
21 12/16/2019 19:52:07 72.66,-126.15 96.01 12/16/2019 19:52:11 72.67,-126.08 96.02 3.05 4
22 12/16/2019 20:42:51 -72.67, 41.14 83.99 12/16/2019 20:42:52 -72.66, 41.21 84.00 2.66 1
23 12/16/2019 21:33:36 72.66,-151.54 96.02 12/16/2019 21:33:31 72.66,-151.44 96.01 3.11 5
24 12/16/2019 22:24:19 -72.62, 15.86 84.03 12/16/2019 22:24:12 -72.64, 15.85 84.01 2.33 7
25 12/16/2019 23:15:05 72.62,-176.82 95.97 12/16/2019 23:14:52 72.65,-176.81 96.00 3.55 13
26 12/17/2019 00:05:49 -72.63, -9.52 84.02 12/17/2019 00:05:33 -72.63, -9.51 84.02 0.53 16
27 12/17/2019 00:56:35 72.62, 157.79 95.98 12/17/2019 00:56:13 72.64, 157.83 95.99 1.91 22
28 12/17/2019 01:47:19 -72.63, -34.91 84.01 12/17/2019 01:46:54 -72.62, -34.87 84.03 2.09 25
29 12/17/2019 02:38:05 72.63, 132.41 95.99 12/17/2019 02:37:34 72.62, 132.47 95.99 2.05 31
30 12/17/2019 03:28:48 -72.59, -60.19 84.06 12/17/2019 03:28:15 -72.61, -60.24 84.03 2.41 33
31 12/17/2019 04:19:34 72.58, 107.13 95.94 12/17/2019 04:18:55 72.61, 107.11 95.98 3.14 39
32 12/17/2019 05:10:18 -72.59, -85.58 84.05 12/17/2019 05:09:36 -72.59, -85.60 84.04 0.65 42
33 12/17/2019 06:01:04 72.59, 81.74 95.95 12/17/2019 06:00:16 72.60, 81.74 95.97 1.02 48
34 12/17/2019 06:51:48 -72.60,-110.96 84.04 12/17/2019 06:50:57 -72.58,-110.96 84.05 2.07 51
35 12/17/2019 07:42:34 72.59, 56.36 95.96 12/17/2019 07:41:37 72.58, 56.38 95.96 1.34 57
36 12/17/2019 08:33:17 -72.55,-136.25 84.08 12/17/2019 08:32:18 -72.57,-136.32 84.06 2.95 59
37 12/17/2019 09:24:03 72.55, 31.07 95.92 12/17/2019 09:22:58 72.57, 31.02 95.95 3.15 65
38 12/17/2019 10:14:47 -72.56,-161.63 84.08 12/17/2019 10:13:39 -72.56,-161.68 84.07 1.76 68
39 12/17/2019 11:05:33 72.55, 5.69 95.92 12/17/2019 11:04:19 72.56, 5.66 95.94 1.16 74
40 12/17/2019 11:56:15 -72.46, 173.19 84.18 12/17/2019 11:55:01 -72.49, 172.85 84.12 11.65 74
41 12/17/2019 12:46:57 72.25, -19.09 95.61 12/17/2019 12:45:46 72.24, -20.31 95.65 41.64 71
42 12/17/2019 13:37:39 -72.16, 148.40 84.49 12/17/2019 13:36:28 -72.17, 146.89 84.42 51.60 71
43 12/17/2019 14:28:20 71.90, -43.78 95.24 12/17/2019 14:27:13 71.92, -46.26 95.35 85.68 67
44 12/17/2019 15:19:02 -71.81, 123.70 84.86 12/17/2019 15:17:56 -71.80, 120.85 84.76 98.86 66




NCC Satellite Simultaneous Nadir Overpasses (SNOs) Prediction Service
